Location: Bh?mavarapp?du
(16.7041°N, 80.6518°E)
Time: 01:24:15
(UTC+00:00)

SL-16 R/B - Pass Details

Date: 21 April 2021
Orbit: 842 x 846 km, 71.0° (Epoch: 07 May)

Event Time Altitude Azimuth Distance (km) Brightness Sun altitude
Rises 13:26:42 0° 342° (NNW) 3,397 5.9 -8.4°
Reaches altitude 10° 13:29:09 10° 341° (NNW) 2,461 5.1 -8.9°
Maximum altitude 13:34:48 82° 254° (WSW) 854 2.3 -10.2°
Drops below altitude 10° 13:40:27 10° 167° (SSE) 2,455 4.3 -11.5°
Sets 13:42:53 0° 166° (SSE) 3,389 5.0 -12.1°
